Погода в Суцу

Япония     42°47′30″N   140°13′35″E
темп.,
°C
ветер,
м/с
пор.,
м/с
влажн.,
%
обл.,
%
осадки,
мм/ч
давл.,
гПа
погр.,
м
26 января, вт
вт2600:00−6св128750 0.0 1030179
03:00−7вюв228726 0.0 102894
06:00−6юв349133 0.0 1028128
09:00−2юв489067 0.1 1027425
12:00+1юв5989100 0.0 1025592
15:00+1юв61092100 0.1 1022681
18:00+1юв51093100 0.0 1022557
21:00+1юв51191100 0.1 1018665
27 января, ср
ср2700:00+2юв61291100 0.1 1015630
03:00+3юв5994100 0.3 1011589
06:00+2ююв3794100 0.6 1008263
09:00+2ююв249690 1.3 1006154
12:00−1зсз111577100 1.8 10101336
15:00−3з11166582 1.8 10141595
18:00−4зсз10156959 0.1 10171447
21:00−5зсз10147776 0.3 10191514
28 января, чт
чт2800:00−6сз91382100 0.3 10201443
03:00−7сз7989100 1.1 10211105
06:00−7сз6888100 1.1 10221018
09:00−7сз3580100 1.4 1022822
12:00−5с1169100 0.1 1020882
15:00−5ссв2267100 0.1 1017723
18:00−7вюв3480100 0.0 1014230
21:00−6юв4884100 0.1 1010429
29 января, пт
пт2900:00−6вюв61684100 0.2 10051074
03:00−4вюв12228798 2.0 9971217
06:00−2юв15269192 2.8 9931496
09:00−1юв16269196 10.5 9921616
12:00−1юв101792100 10.6 9891017
15:00−2юв8159397 15.8 9861071
18:00−4вюв5118499 1.5 987567
21:00−6всв2283100 1.5 989123
30 января, сб
сб3000:00−4ссз1297100 0.4 99184
03:00−3с5991100 1.6 995647
06:00−3с91394100 1.8 10011084
09:00−3ссз81292100 3.2 10061079
12:00−3сз81192100 2.3 10091009
15:00−4сз111593100 6.6 10131078
18:00−5сз81193100 1.4 10161028
21:00−6зсз81189100 3.1 1019954